FW4702 Weather Reports


Display with metric or nautical units.
time (UTC)temp
F
wind
direction
speed
MPH
gust
MPH
rain 1hr
in
rain 24hr
in
rain mn
in
humidity
%
barometer
mb
20260502130600 54 30 2.0 5.0 0.00 0.00 0.00 64 1016.7
20260502130107 54 40 1.0 4.0 0.00 0.00 0.00 66 1016.8
20260502123558 52 315 1.0 4.0 0.00 0.00 0.00 68 1016.7
20260502123104 52 0 0.0 3.0 0.00 0.00 0.00 67 1016.7
20260502122555 52 0 0.0 3.0 0.00 0.00 0.00 69 1016.5
20260502122055 52 0 0.0 5.0 0.00 0.00 0.00 69 1016.5
20260502121559 51 352 1.0 5.0 0.00 0.00 0.00 69 1016.6
20260502121055 51 0 2.0 4.0 0.00 0.00 0.00 69 1016.5
20260502120555 50 306 1.0 3.0 0.00 0.00 0.00 70 1016.3
20260502115559 50 299 0.0 3.0 0.00 0.00 0.00 70 1016.2
20260502115055 50 299 0.0 2.0 0.00 0.00 0.00 70 1016.0
20260502114557 50 0 0.0 2.0 0.00 0.00 0.00 69 1016.1
20260502114056 50 321 0.0 3.0 0.00 0.00 0.00 69 1016.0
20260502113559 50 302 0.0 3.0 0.00 0.00 0.00 69 1016.1
20260502113056 51 0 0.0 3.0 0.00 0.00 0.00 69 1015.9
20260502112556 51 333 0.0 3.0 0.00 0.00 0.00 68 1016.0
20260502112055 51 0 1.0 3.0 0.00 0.00 0.00 68 1015.9
20260502111556 51 0 0.0 3.0 0.00 0.00 0.00 68 1015.9
20260502111058 51 308 0.0 3.0 0.00 0.00 0.00 68 1015.7
20260502110557 50 302 0.0 2.0 0.00 0.00 0.00 68 1015.7
20260502110104 50 0 0.0 1.0 0.00 0.00 0.00 70 1015.7
20260502105555 50 0 0.0 1.0 0.00 0.00 0.00 71 1015.7
20260502105059 51 0 0.0 2.0 0.00 0.00 0.00 72 1015.5
20260502104555 51 0 0.0 2.0 0.00 0.00 0.00 65 1015.5
20260502104055 51 0 0.0 2.0 0.00 0.00 0.00 66 1015.4
20260502103555 51 0 0.0 2.0 0.00 0.00 0.00 65 1015.3
20260502103055 51 0 0.0 2.0 0.00 0.00 0.00 65 1015.3
20260502102555 52 0 0.0 2.0 0.00 0.00 0.00 65 1015.3
20260502102055 52 0 0.0 2.0 0.00 0.00 0.00 63 1015.4
20260502101554 52 0 0.0 2.0 0.00 0.00 0.00 62 1015.5
20260502101057 52 0 0.0 2.0 0.00 0.00 0.00 62 1015.3
20260502100555 52 0 0.0 2.0 0.00 0.00 0.00 62 1015.1
20260502091056 53 10 0.0 4.0 0.00 0.00 0.00 58 1014.8
20260502090557 53 315 0.0 3.0 0.00 0.00 0.00 58 1014.7
20260502071057 55 0 1.0 4.0 0.00 0.00 0.00 55 1015.5
20260502070557 55 0 1.0 4.0 0.00 0.00 0.00 55 1015.5
20260502070059 55 0 0.0 4.0 0.00 0.00 0.00 55 1015.9
20260502065558 55 306 1.0 4.0 0.00 0.00 0.00 55 1016.1
20260502065057 55 0 1.0 4.0 0.00 0.00 0.00 55 1015.9
20260502064600 55 0 0.0 8.0 0.00 0.00 0.00 54 1015.8
20260502064057 55 0 1.0 8.0 0.00 0.00 0.00 54 1015.9
20260502063559 55 58 0.0 4.0 0.00 0.00 0.00 54 1015.9
20260502063100 55 0 1.0 5.0 0.00 0.00 0.00 54 1015.9
20260502062557 56 277 2.0 5.0 0.00 0.00 0.00 53 1015.8
20260502062056 56 285 1.0 5.0 0.00 0.00 0.00 54 1015.9
20260502061554 56 352 1.0 4.0 0.00 0.00 0.00 54 1016.1
20260502061056 56 306 1.0 4.0 0.00 0.00 0.00 53 1016.3
20260502060557 56 330 0.0 4.0 0.00 0.00 0.00 52 1016.2
20260502055600 56 0 1.0 4.0 0.00 0.00 0.00 53 1016.0
20260502055058 56 0 1.0 4.0 0.00 0.00 0.00 52 1016.0
20260502054558 56 0 1.0 5.0 0.00 0.00 0.00 51 1015.8
20260502054057 56 290 2.0 5.0 0.00 0.00 0.00 51 1015.7
20260502053557 56 0 1.0 5.0 0.00 0.00 0.00 52 1015.8
20260502053102 56 0 1.0 5.0 0.00 0.00 0.00 51 1015.9
20260502052600 56 327 1.0 6.0 0.00 0.00 0.00 51 1015.9
20260502052058 56 86 1.0 6.0 0.00 0.00 0.00 51 1015.7
20260502051558 56 352 1.0 3.0 0.00 0.00 0.00 50 1015.8
20260502051058 56 335 0.0 4.0 0.00 0.00 0.00 50 1015.8
20260502050559 57 321 1.0 7.0 0.00 0.00 0.00 51 1015.7
20260502050056 57 0 1.0 7.0 0.00 0.00 0.00 50 1015.7
20260502045559 57 0 1.0 6.0 0.00 0.00 0.00 50 1015.6
20260502045057 57 331 1.0 5.0 0.00 0.00 0.00 50 1015.4
20260502044557 57 0 1.0 5.0 0.00 0.00 0.00 50 1015.4
20260502044057 57 57 0.0 5.0 0.00 0.00 0.00 52 1015.3
20260502043600 57 46 0.0 5.0 0.00 0.00 0.00 51 1015.3
20260502043107 57 306 0.0 4.0 0.00 0.00 0.00 51 1015.4
20260502042558 57 0 1.0 6.0 0.00 0.00 0.00 52 1015.3
20260502042057 57 33 1.0 6.0 0.00 0.00 0.00 52 1015.3
20260502041556 57 0 1.0 5.0 0.00 0.00 0.00 53 1015.4
20260502041057 57 15 0.0 4.0 0.00 0.00 0.00 53 1015.3
20260502040600 57 0 1.0 4.0 0.00 0.00 0.00 53 1015.4
20260502040059 57 0 0.0 4.0 0.00 0.00 0.00 54 1015.4
20260502035558 58 311 1.0 4.0 0.00 0.00 0.00 54 1015.6
20260502035058 58 322 1.0 7.0 0.00 0.00 0.00 55 1015.3
20260502034600 58 0 1.0 7.0 0.00 0.00 0.00 55 1015.2
20260502034058 58 0 0.0 3.0 0.00 0.00 0.00 55 1015.3
20260502033557 58 317 0.0 3.0 0.00 0.00 0.00 54 1015.1
20260502033056 58 312 0.0 3.0 0.00 0.00 0.00 55 1015.4
20260502032557 58 30 0.0 3.0 0.00 0.00 0.00 54 1015.6
20260502032057 59 330 0.0 6.0 0.00 0.00 0.00 54 1015.5
20260502031559 59 0 0.0 6.0 0.00 0.00 0.00 55 1015.6
20260502031057 59 5 0.0 6.0 0.00 0.00 0.00 54 1015.8
20260502030557 59 0 0.0 3.0 0.00 0.00 0.00 55 1015.9
20260502030056 59 0 0.0 5.0 0.00 0.00 0.00 55 1015.8
20260502025557 59 325 1.0 5.0 0.00 0.00 0.00 55 1015.6
20260502025056 59 5 1.0 8.0 0.00 0.00 0.00 56 1015.7
20260502024600 60 350 1.0 8.0 0.00 0.00 0.00 56 1015.7
20260502024100 60 0 1.0 7.0 0.00 0.00 0.00 57 1015.6
20260502023600 60 327 1.0 7.0 0.00 0.00 0.00 60 1015.6
20260502023102 60 312 3.0 7.0 0.00 0.00 0.00 61 1015.4
20260502022557 60 297 0.0 4.0 0.00 0.00 0.00 65 1015.4
20260502022058 60 0 1.0 4.0 0.00 0.00 0.00 66 1015.3
20260502021557 60 61 1.0 4.0 0.00 0.00 0.00 66 1015.3
20260502021057 60 0 1.0 4.0 0.00 0.00 0.00 67 1015.1
20260502020559 61 0 0.0 4.0 0.00 0.00 0.00 67 1015.0
20260502020100 61 309 1.0 4.0 0.00 0.00 0.00 68 1014.9
20260502015559 61 267 0.0 4.0 0.00 0.00 0.00 68 1014.8
20260502015057 61 313 0.0 4.0 0.00 0.00 0.00 68 1014.8
20260502014601 61 316 1.0 3.0 0.00 0.00 0.00 68 1014.8
20260502014057 61 0 0.0 3.0 0.00 0.00 0.00 67 1014.9
20260502013557 61 317 0.0 3.0 0.00 0.00 0.00 67 1014.8
20260502013108 61 91 0.0 3.0 0.00 0.00 0.00 68 1014.8
20260502012557 61 0 0.0 4.0 0.00 0.00 0.00 69 1014.9
20260502012057 60 0 0.0 4.0 0.00 0.00 0.00 71 1014.9
20260502011557 59 0 0.0 2.0 0.00 0.00 0.00 75 1014.9
20260502011058 59 0 0.0 2.0 0.00 0.00 0.00 78 1014.9
20260502010558 59 0 0.0 0.0 0.00 0.00 0.00 78 1014.8
20260502010101 59 0 0.0 0.0 0.00 0.00 0.00 79 1014.6
20260502005557 59 0 0.0 1.0 0.00 0.00 0.00 77 1014.6
20260502005057 59 0 0.0 1.0 0.00 0.00 0.00 77 1014.5
20260502004605 59 0 0.0 1.0 0.00 0.00 0.00 78 1014.5
20260502004059 59 0 0.0 0.0 0.00 0.00 0.00 81 1014.5
20260502003601 59 0 0.0 0.0 0.00 0.00 0.00 81 1014.4
20260502003055 59 0 0.0 0.0 0.00 0.00 0.00 80 1014.2
20260502002558 59 0 0.0 0.0 0.00 0.00 0.00 78 1014.0
20260502002058 60 0 0.0 0.0 0.00 0.00 0.00 77 1013.8
20260502001556 60 0 0.0 0.0 0.00 0.00 0.00 76 1013.8
20260502001101 60 0 0.0 1.0 0.00 0.00 0.00 79 1013.8
20260502000557 61 0 0.0 1.0 0.00 0.00 0.00 77 1013.9
20260502000108 61 0 0.0 1.0 0.00 0.00 0.00 72 1013.8
20260501235558 61 0 0.0 0.0 0.00 0.00 0.00 77 1013.8
20260501235057 61 0 0.0 2.0 0.00 0.00 0.00 75 1013.7
20260501234606 61 0 0.0 2.0 0.00 0.00 0.00 75 1013.8
20260501234057 62 0 0.0 2.0 0.00 0.00 0.00 71 1013.8
20260501233556 62 0 0.0 2.0 0.00 0.00 0.00 70 1013.7
20260501233059 62 311 0.0 2.0 0.00 0.00 0.00 67 1013.5
20260501232556 63 0 0.0 2.0 0.00 0.00 0.00 67 1013.4
20260501232056 63 312 0.0 1.0 0.00 0.00 0.00 60 1013.3
20260501231557 63 0 0.0 1.0 0.00 0.00 0.00 63 1013.7
20260501231057 63 314 0.0 1.0 0.00 0.00 0.00 62 1013.5
20260501230557 63 0 0.0 1.0 0.00 0.00 0.00 61 1013.5
20260501230056 63 0 0.0 2.0 0.00 0.00 0.00 62 1013.6
20260501225557 64 0 0.0 2.0 0.00 0.00 0.00 61 1013.6
20260501225057 65 0 0.0 2.0 0.00 0.00 0.00 57 1013.6
20260501224555 64 0 1.0 2.0 0.00 0.00 0.00 57 1013.7
20260501224057 65 0 0.0 3.0 0.00 0.00 0.00 59 1013.7
20260501223557 65 0 0.0 3.0 0.00 0.00 0.00 56 1013.4
20260501223102 65 0 0.0 3.0 0.00 0.00 0.00 56 1013.4
20260501222557 65 0 0.0 2.0 0.00 0.00 0.00 56 1013.4
20260501222057 65 0 0.0 2.0 0.00 0.00 0.00 56 1013.1
20260501221602 65 333 0.0 2.0 0.00 0.00 0.00 53 1012.9
20260501221057 66 0 0.0 2.0 0.00 0.00 0.00 54 1012.8
20260501220557 66 59 0.0 4.0 0.00 0.00 0.00 54 1012.8
20260501215559 66 0 1.0 5.0 0.00 0.00 0.00 52 1013.0
20260501215058 66 0 0.0 7.0 0.00 0.00 0.00 52 1013.1
20260501214558 66 24 2.0 7.0 0.00 0.00 0.00 51 1013.0
20260501214056 66 342 1.0 4.0 0.00 0.00 0.00 51 1013.0
20260501213559 66 0 0.0 4.0 0.00 0.00 0.00 51 1012.9
20260501213102 66 298 1.0 5.0 0.00 0.00 0.00 52 1013.0
20260501212557 66 67 1.0 5.0 0.00 0.00 0.00 53 1013.1
20260501212055 66 294 1.0 4.0 0.00 0.00 0.00 51 1013.3
20260501211555 66 0 0.0 3.0 0.00 0.00 0.00 52 1013.5
20260501211056 66 311 0.0 3.0 0.00 0.00 0.00 54 1013.6
20260501210555 65 0 1.0 3.0 0.00 0.00 0.00 52 1013.6
20260501210055 66 282 0.0 4.0 0.00 0.00 0.00 55 1013.7
20260501205555 66 0 0.0 4.0 0.00 0.00 0.00 54 1013.7
20260501205054 66 48 1.0 3.0 0.00 0.00 0.00 52 1013.7
20260501204554 66 0 0.0 2.0 0.00 0.00 0.00 54 1013.9
20260501204055 65 0 0.0 2.0 0.00 0.00 0.00 54 1014.0
20260501203555 65 0 0.0 3.0 0.00 0.00 0.00 58 1014.1
20260501203055 65 324 1.0 4.0 0.00 0.00 0.00 53 1014.3
20260501202559 65 0 0.0 5.0 0.00 0.00 0.00 52 1014.3
20260501202055 65 319 0.0 5.0 0.00 0.00 0.00 52 1014.5
20260501201607 65 314 1.0 3.0 0.00 0.00 0.00 51 1014.6
20260501201057 65 82 0.0 3.0 0.00 0.00 0.00 52 1014.6
20260501200557 65 327 0.0 2.0 0.00 0.00 0.00 51 1014.7
20260501200101 65 0 0.0 3.0 0.00 0.00 0.00 52 1014.7
20260501195555 65 0 0.0 4.0 0.00 0.00 0.00 52 1014.9
20260501195055 65 0 0.0 4.0 0.00 0.00 0.00 53 1015.0
20260501194556 65 29 1.0 5.0 0.00 0.00 0.00 51 1015.1
20260501194055 65 0 1.0 5.0 0.00 0.00 0.00 51 1015.3
20260501193552 65 304 1.0 3.0 0.00 0.00 0.00 52 1015.4
20260501193100 65 325 0.0 4.0 0.00 0.00 0.00 53 1015.4
20260501192555 65 318 1.0 4.0 0.00 0.00 0.00 52 1015.4
20260501192055 64 44 1.0 6.0 0.00 0.00 0.00 53 1015.5
20260501191557 64 315 1.0 6.0 0.00 0.00 0.00 51 1015.6
20260501191055 65 305 1.0 4.0 0.00 0.00 0.00 52 1015.7
20260501190555 64 352 2.0 5.0 0.00 0.00 0.00 52 1015.8
20260501190056 64 323 1.0 5.0 0.00 0.00 0.00 54 1015.8
20260501185553 64 348 1.0 5.0 0.00 0.00 0.00 53 1015.7
20260501185055 64 0 2.0 6.0 0.00 0.00 0.00 52 1015.7
20260501184600 64 318 1.0 6.0 0.00 0.00 0.00 54 1015.8
20260501184053 64 300 1.0 5.0 0.00 0.00 0.00 53 1015.6
20260501183557 64 82 1.0 5.0 0.00 0.00 0.00 55 1015.7
20260501183100 64 285 1.0 5.0 0.00 0.00 0.00 54 1015.7
20260501182553 64 27 1.0 4.0 0.00 0.00 0.00 54 1015.7
20260501182052 64 0 1.0 8.0 0.00 0.00 0.00 54 1015.6
20260501181554 63 265 0.0 8.0 0.00 0.00 0.00 55 1015.5
20260501181052 63 318 2.0 7.0 0.00 0.00 0.00 54 1015.4
20260501180552 63 0 0.0 4.0 0.00 0.00 0.00 57 1015.4
20260501180057 63 5 0.0 5.0 0.00 0.00 0.00 58 1015.4
20260501175555 63 0 1.0 5.0 0.00 0.00 0.00 56 1015.4
20260501175052 63 0 2.0 5.0 0.00 0.00 0.00 56 1015.5
20260501174555 63 100 1.0 3.0 0.00 0.00 0.00 56 1015.7
20260501174052 63 0 0.0 4.0 0.00 0.00 0.00 55 1015.8
20260501173555 63 287 0.0 6.0 0.00 0.00 0.00 55 1015.9
20260501173053 63 327 2.0 6.0 0.00 0.00 0.00 54 1016.0
20260501172555 63 325 0.0 5.0 0.00 0.00 0.00 54 1016.1
20260501172051 63 310 0.0 9.0 0.00 0.00 0.00 53 1016.0
20260501171556 63 61 1.0 9.0 0.00 0.00 0.00 52 1016.1
20260501171052 63 348 2.0 9.0 0.00 0.00 0.00 52 1016.3
20260501170557 63 42 1.0 5.0 0.00 0.00 0.00 51 1016.4
20260501170058 63 31 2.0 5.0 0.00 0.00 0.00 52 1016.3
20260501165556 63 212 1.0 4.0 0.00 0.00 0.00 55 1016.3
20260501165055 63 325 0.0 5.0 0.00 0.00 0.00 57 1016.2
20260501164555 63 335 0.0 5.0 0.00 0.00 0.00 57 1016.2
20260501164057 63 51 1.0 5.0 0.00 0.00 0.00 55 1016.2
20260501163558 62 323 0.0 6.0 0.00 0.00 0.00 58 1016.3
20260501163052 62 53 1.0 7.0 0.00 0.00 0.00 55 1016.3
20260501162556 62 315 2.0 7.0 0.00 0.00 0.00 54 1016.2
20260501162055 62 311 1.0 5.0 0.00 0.00 0.00 57 1016.1
20260501161553 62 49 0.0 6.0 0.00 0.00 0.00 56 1016.1
20260501161056 62 330 1.0 6.0 0.00 0.00 0.00 56 1016.2
20260501160556 61 58 1.0 6.0 0.00 0.00 0.00 57 1016.0
20260501160055 61 0 1.0 3.0 0.00 0.00 0.00 57 1016.0
20260501155558 61 0 0.0 2.0 0.00 0.00 0.00 62 1016.1
20260501155055 61 312 0.0 4.0 0.00 0.00 0.00 60 1016.3
20260501154559 61 0 1.0 4.0 0.00 0.00 0.00 61 1016.3
20260501154055 60 0 1.0 4.0 0.00 0.00 0.00 61 1016.4
20260501153555 60 309 0.0 3.0 0.00 0.00 0.00 61 1016.5
20260501153106 60 0 0.0 3.0 0.00 0.00 0.00 66 1016.4
20260501152557 60 304 0.0 2.0 0.00 0.00 0.00 66 1016.5
20260501152101 59 321 0.0 2.0 0.00 0.00 0.00 67 1016.6
20260501151559 59 0 0.0 2.0 0.00 0.00 0.00 67 1016.5
20260501151055 59 309 0.0 3.0 0.00 0.00 0.00 69 1016.6
20260501150554 59 0 0.0 3.0 0.00 0.00 0.00 68 1016.6
20260501150055 58 322 0.0 4.0 0.00 0.00 0.00 70 1016.5
20260501145559 58 0 1.0 4.0 0.00 0.00 0.00 69 1016.3
20260501145056 58 0 0.0 2.0 0.00 0.00 0.00 69 1016.3
20260501144559 58 0 0.0 2.0 0.00 0.00 0.00 71 1016.3
20260501144057 57 0 0.0 2.0 0.00 0.00 0.00 71 1016.3
20260501143557 57 0 0.0 2.0 0.00 0.00 0.00 72 1016.1
20260501143055 57 348 0.0 2.0 0.00 0.00 0.00 74 1016.1
20260501142559 57 0 1.0 2.0 0.00 0.00 0.00 73 1016.3
20260501142059 56 0 0.0 2.0 0.00 0.00 0.00 72 1016.3
20260501141556 56 0 0.0 2.0 0.00 0.00 0.00 74 1016.2